Header for Extended Forecast Station List Page

Search by: ID | Name | Date | Parm | Value | Avg | % Avg
Sort by: ID | Name | Date | Parm | Value | Avg | % Avg

Enter search or view all records.

Click on id for station plot
#IDNameDateParmValueAvg% Avg
0TNAW1TEANAWAY-BELOW FORKS10-07-2019DISCHARGE (KAF)163445
1STRM8ST. REGIS-NEAR ST. REGIS10-07-2019DISCHARGE (KAF)203656
2CLFW1NACHES-NEAR CLIFFDEL10-07-2019DISCHARGE (KAF)569856
3COEI1COEUR D ALENE-COEUR D ALENE LAKE10-07-2019INFLOW (KAF)33658358
4DWRI1NF CLEARWATER-DWORSHAK DAM10-07-2019INFLOW (KAF)28447460
5SATI1ST MARIES-NEAR SANTA10-07-2019DISCHARGE (KAF)172861
6LLKW1SPOKANE-AT LONGLAKE10-07-2019INFLOW (KAF)657103464
7WSRI1WEISER-NEAR WEISER10-07-2019DISCHARGE (KAF)446567
8SPDI1CLEARWATER-AT SPALDING10-07-2019DISCHARGE (KAF)993148567
9KERM8FLATHEAD-KERR DAM10-07-2019INFLOW (KAF)1029150968
10LGSW1SNAKE-LITTLE GOOSE DAM10-07-2019INFLOW (KAF)4975728368
11LMNW1SNAKE-LOWER MONUMENTAL DAM10-07-2019INFLOW (KAF)5010733168
12LGDW1SNAKE-LOWER GRANITE DAM10-07-2019INFLOW (KAF)4975723169
13IHDW1SNAKE-ICE HARBOR DAM10-07-2019INFLOW (KAF)5010725969
14ALFW1PEND OREILLE-ALBENI FALLS DAM10-07-2019INFLOW (KAF)3009417372
15KIOW1YAKIMA-AT KIONA10-07-2019DISCHARGE (KAF)47565572
16ANAW1SNAKE-NEAR ANATONE10-07-2019DISCHARGE (KAF)3981553972
17MONO3NF JOHN DAY-AT MONUMENT10-07-2019DISCHARGE (KAF)618572
18NOXM8CLARK FORK-NOXON RAPIDS DAM10-07-2019INFLOW (KAF)2523345873
19CFMM8FLATHEAD-AT COLUMBIA FALLS10-07-2019DISCHARGE (KAF)892120774
20BUDW1BUMPING-BUMPING LAKE DAM10-07-2019INFLOW (KAF)253474
21SWAI1SNAKE-BELOW SWAN FALLS10-07-2019DISCHARGE (KAF)1883253174
22EASW1YAKIMA-AT EASTON10-07-2019DISCHARGE (KAF)486475
23TRYO3GRANDE RONDE-TROY10-07-2019DISCHARGE (KAF)20227175
24KADW1KACHESS-KACHESS DAM10-07-2019INFLOW (KAF)324276
25EMMI1PAYETTE-NEAR EMMETT10-07-2019DISCHARGE (KAF)26634776
26CABI1CLARK FORK-CABINET GORGE DAM10-07-2019INFLOW (KAF)2765359977
27UMTW1YAKIMA-AT UMTANUM10-07-2019DISCHARGE (KAF)18824577
28PARW1YAKIMA-NEAR PARKER10-07-2019DISCHARGE (KAF)31841577
29WEII1SNAKE-AT WEISER10-07-2019DISCHARGE (KAF)2744358377
30GIBO3UMATILLA-NEAR GIBBON10-07-2019DISCHARGE (KAF)222977
31BRNI1SNAKE-BROWNLEE DAM10-07-2019INFLOW (KAF)2924367979
32SERO3JOHN DAY-AT SERVICE CK10-07-2019DISCHARGE (KAF)13116380
33FCFM8NF FLATHEAD-NEAR COLUMBIA FALLS10-07-2019DISCHARGE (KAF)16119981
34RILW1TIETON-RIMROCK LAKE NEAR RIMROCK10-07-2019INFLOW (KAF)536582
35PITW1KLICKITAT-NEAR PITT10-07-2019DISCHARGE (KAF)20825582
36BITM8BITTERROOT-NEAR MISSOULA10-07-2019DISCHARGE (KAF)19523284
37CLUW1CLE ELUM-CLE ELUM LAKE10-07-2019INFLOW (KAF)8510085
38ORFI1CLEARWATER-AT OROFINO10-07-2019DISCHARGE (KAF)53662486
39BONO3COLUMBIA-BONNEVILLE DAM10-07-2019INFLOW (KAF)299623485986
40PDTO3UMATILLA-AT PENDLETON10-07-2019DISCHARGE (KAF)566487
41BERO3MALHEUR-AGENCY VALLEY DAM10-07-2019INFLOW (KAF)131589
42TDAO3COLUMBIA-THE DALLES DAM10-07-2019INFLOW (KAF)293133293089
43TONW1OKANOGAN-NEAR TONASKET10-07-2019DISCHARGE (KAF)25328290
44PESW1WENATCHEE-AT PESHASTIN10-07-2019DISCHARGE (KAF)26129090
45WGCM8MF FLATHEAD-NEAR WEST GLACIER10-07-2019DISCHARGE (KAF)15817591
46WHBI1SALMON-AT WHITEBIRD10-07-2019DISCHARGE (KAF)1001109591
47HHWM8SF FLATHEAD-HUNGRY HORSE DAM10-07-2019INFLOW (KAF)23224694
48PRTI1PRIEST-NEAR PRIEST RIVER10-07-2019DISCHARGE (KAF)22223395
49MCDW1COLUMBIA-MCNARY DAM10-07-2019INFLOW (KAF)275162888695
50SRGM8CLARK FORK-AT ST REGIS10-07-2019DISCHARGE (KAF)73676596
51PARI1BOISE-NEAR PARMA10-07-2019DISCHARGE (KAF)20421296
52WRMO3MALHEUR-WARM SPRINGS DAM10-07-2019INFLOW (KAF)171796
53JDAO3COLUMBIA-JOHN DAY DAM10-07-2019INFLOW (KAF)285722971296
54DEDI1DEADWOOD-NEAR LOWMAN10-07-2019INFLOW (KAF)181998
55UNDW1WHITE SALMON-NEAR UNDERWOOD10-07-2019DISCHARGE (KAF)21521998
56KEDW1YAKIMA-KEECHELUS LAKE10-07-2019INFLOW (KAF)495099
57PIHI1PORTNEUF-AT POCATELLO10-07-2019DISCHARGE (KAF)595999
58CSDI1NF PAYETTE-CASCADE DAM10-07-2019INFLOW (KAF)919399
59LYDM8KOOTENAI-LIBBY DAM10-07-2019INFLOW (KAF)951956100
60BELM8CLARK FORK-BELOW MISSOULA10-07-2019DISCHARGE (KAF)592589100
61CHJW1COLUMBIA-CHIEF JOSEPH DAM10-07-2019INFLOW (KAF)2080120817100
62WELW1COLUMBIA-WELLS DAM10-07-2019INFLOW (KAF)2117521186100
63RRHW1COLUMBIA-ROCKY REACH DAM10-07-2019INFLOW (KAF)2175021702100
64HEII1SNAKE-NEAR HEISE10-07-2019DISCHARGE (KAF)639637100
65MODO3DESCHUTES-AT MOODY NR BIGGS10-07-2019DISCHARGE (KAF)13421343100
66DLGM8CLARK FORK-AT DEER LODGE10-07-2019DISCHARGE (KAF)6564101
67NACW1NACHES-NEAR NACHES10-07-2019DISCHARGE (KAF)7270102
68IPDI1HENRYS FORK-ISLAND PARK DAM10-07-2019INFLOW (KAF)121119102
69TEAI1TETON-NEAR ST. ANTHONY10-07-2019DISCHARGE (KAF)113109103
70ALPW4SNAKE-NEAR ALPINE10-07-2019DISCHARGE (KAF)417407103
71PLDI1SF SNAKE-PALISADES DAM10-07-2019INFLOW (KAF)678657103
72AFRI1SNAKE-AMERICAN FALLS RESERVOIR10-07-2019INFLOW (KAF)14971459103
73JKSW4SNAKE-NEAR JACKSON10-07-2019DISCHARGE (KAF)333320104
74MYKO3MCKAY CREEK-NEAR PILOT ROCK10-07-2019DISCHARGE (KAF)1413105
75TCHW1WALLA WALLA-NEAR TOUCHET10-07-2019DISCHARGE (KAF)10094106
76BFTI1SNAKE-NEAR BLACKFOOT10-07-2019DISCHARGE (KAF)823771107
77CHEI1FALL RIVER-NEAR CHESTER10-07-2019DISCHARGE (KAF)122112110
78PRWW1COLUMBIA-PRIEST RAPIDS DAM10-07-2019INFLOW (KAF)2199819774111
79ABOM8CLARK FORK-ABOVE MISSOULA10-07-2019DISCHARGE (KAF)393352112
80SNAI1SNAKE-AT BLACKFOOT10-07-2019DISCHARGE (KAF)801714112
81WANW1COLUMBIA-WANAPUM DAM10-07-2019INFLOW (KAF)2200419450113
82SIFI1SNAKE-AB EAGLE ROCK NR IDAHO FALLS10-07-2019DISCHARGE (KAF)931825113
83ARAI1SF BOISE-ANDERSON RANCH DAM10-07-2019INFLOW (KAF)8373113
84GCDW1COLUMBIA-GRAND COULEE DAM10-07-2019INFLOW (KAF)1981417361114
85ANTI1HENRYS FORK-AT ST. ANTHONY10-07-2019DISCHARGE (KAF)387340114
86REXI1HENRYS FORK-AT REXBURG10-07-2019DISCHARGE (KAF)496431115
87SHYI1SNAKE-NEAR SHELLEY10-07-2019DISCHARGE (KAF)922802115
88ARDW1ENTIAT-NEAR ARDENVOIR10-07-2019DISCHARGE (KAF)2622116
89HALI1BIG WOOD-AT HAILEY10-07-2019DISCHARGE (KAF)4741116
90OWYO3OWYHEE-OWYHEE DAM10-07-2019INFLOW (KAF)8673117
91HODO3HOOD-NEAR TUCKER BRIDGE10-07-2019DISCHARGE (KAF)242206117
92JLKW4SNAKE-JACKSON LAKE AT DAM10-07-2019INFLOW (KAF)133112118
93BONM8BLACKFOOT-NEAR BONNER10-07-2019DISCHARGE (KAF)166138120
94MAGI1BIG WOOD-MAGIC DAM10-07-2019INFLOW (KAF)3327120
95RCCM8ROCK CREEK-NEAR CLINTON10-07-2019DISCHARGE (KAF)6251122
96PATW1METHOW-NEAR PATEROS10-07-2019DISCHARGE (KAF)124101123
97HWRI1BIG LOST-AT HOWELL RANCH NEAR CHILLY10-07-2019DISCHARGE (KAF)2822124
98LEOI1KOOTENAI-AT LEONIA10-07-2019DISCHARGE (KAF)20561639125
99LWRI1LITTLE WOOD-LITTLE WOOD DAM10-07-2019INFLOW (KAF)2015131
100HOTI1BRUNEAU-NEAR HOT SPRINGS10-07-2019DISCHARGE (KAF)3526133
101RIDI1WILLOW CREEK-RIRIE DAM10-07-2019INFLOW (KAF)128142
102UMAO3UMATILLA-NEAR UMATILLA10-07-2019DISCHARGE (KAF)9666146
103BIGI1BOISE-AT GLENWOOD BRIDGE10-07-2019DISCHARGE (KAF)5839148
104CHDW1CHELAN-LAKE CHELAN DAM10-07-2019INFLOW (KAF)242157154
105BULO3BULLY CREEK-BULLY CREEK DAM10-07-2019INFLOW (KAF)32174
106LAUW1KETTLE-AT LAURIER10-07-2019DISCHARGE (KAF)266128208
107MACI1BIG LOST-MACKAY RESERVOIR NEAR MACKAY10-07-2019INFLOW (KAF)477695
108BFEI1KOOTENAI-AT BONNERS FERRY10-07-2019STAGE (FT)MMM
109DRMM8CLARK FORK-NR DRUMMOND10-07-2019DISCHARGE (KAF)149MM
110HOPI1PEND OREILLE-PEND OREILLE LAKE NR HOPE10-07-2019LAKE ELEVATION (FT)MMM
111SPOW1SPOKANE-AT SPOKANE10-07-2019DISCHARGE (KAF)467MM
112SJMI1ST JOE-AT ST MARIES10-07-2019STAGE (FT)MMM
113CIBW1COLUMBIA-AT INTL BOUNDARY10-07-2019DISCHARGE (KAF)18798MM
114MILI1SNAKE-AT MILNER10-07-2019DISCHARGE (KAF)M505M
115LUCI1BOISE-LUCKY PEAK DAM10-07-2019INFLOW (KAF)29MM